Change the Weather History Date:

Wednesday, June 5, 2013

  Actual Average Record
Temperature  
Mean Temperature 48 °F 57 °F  
Max Temperature 66 °F 70 °F 86 °F (1949)
Min Temperature 30 °F 44 °F 30 °F (1993)
Degree Days  
Heating Degree Days 18    
Cooling Degree Days 0 1  
Month to date cooling degree days 8 4  
Year to date cooling degree days 18 7  
Since 1 June cooling degree days 8 4  
Moisture  
Dew Point 35 °F    
Average Humidity 63    
Maximum Humidity 100    
Minimum Humidity 26    
Precipitation  
Precipitation 0.00 in 0.13 in 0.82 in (2002)
Month to date precipitation 1.04 0.64  
Year to date precipitation 12.04 12.99  
Sea Level Pressure  
Sea Level Pressure 30.18 in    
Wind  
Wind Speed 2 mph (NW)    
Max Wind Speed 9 mph    
Max Gust Speed 13 mph    
Visibility 8 miles    
Events Fog    
T = Trace of Precipitation, MM = Missing Value Source: NWS Daily Summary

Daily Weather History Graph

Daily Weather History Graph

Search for Another Location

Airport or City:

Trip Planner

Search our weather history database for the weather conditions in past years. The results will help you decide how hot, cold, wet, or windy it might be!

Date:

Astronomy

Jun. 05, 2013 Rise Set
Actual Time 5:13 AM EDT 8:37 PM EDT
Civil Twilight 4:37 AM EDT 9:13 PM EDT
Nautical Twilight 3:50 AM EDT 10:00 PM EDT
Astronomical Twilight 2:51 AM EDT 11:00 PM EDT
Moon 3:22 AM EDT (6/5) 5:56 PM EDT (6/5)
Length of Visible Light 16h 35m
Length of Day
15h 23m
Waning Crescent, 8% of the Moon is Illuminated
Jun 5
Waning Crescent
Jun 8
New
Jun 16
First Quarter
Jun 23
Full
Jun 30
Last Quarter

Hourly Weather History & Observations

Time (EDT) Temp. Dew Point Humidity Pressure Visibility Wind Dir Wind Speed Gust Speed Precip Events Conditions
12:51 AM 39.0 °F 37.0 °F 93% 30.15 in 10.0 mi Calm Calm - N/A   Clear
1:51 AM 37.9 °F 37.0 °F 97% 30.15 in 10.0 mi Calm Calm - N/A   Clear
2:51 AM 35.1 °F 34.0 °F 96% 30.16 in 10.0 mi Calm Calm - N/A   Clear
3:51 AM 34.0 °F 32.0 °F 92% 30.17 in 10.0 mi Calm Calm - N/A   Clear
4:51 AM 32.0 °F 30.0 °F 92% 30.19 in 10.0 mi Calm Calm - N/A   Clear
5:29 AM 30.2 °F 30.2 °F 100% 30.17 in 8.0 mi Calm Calm - N/A   Scattered Clouds
5:33 AM 32.0 °F 30.2 °F 93% 30.18 in 1.5 mi Calm Calm - N/A   Mostly Cloudy
5:36 AM 30.2 °F 30.2 °F 100% 30.18 in 0.2 mi Calm Calm - N/A Fog Light Freezing Fog
5:51 AM 30.9 °F 30.9 °F 100% 30.21 in 0.2 mi Calm Calm - N/A Fog Light Freezing Fog
6:51 AM 37.9 °F 37.9 °F 100% 30.21 in 1.0 mi Calm Calm - N/A   Mist
6:55 AM 39.2 °F 39.2 °F 100% 30.19 in 3.0 mi Calm Calm - N/A   Mostly Cloudy
7:08 AM 41.0 °F 39.2 °F 93% 30.19 in 10.0 mi Calm Calm - N/A   Scattered Clouds
7:51 AM 46.9 °F 43.0 °F 86% 30.21 in 10.0 mi Calm Calm - N/A   Clear
8:51 AM 53.1 °F 39.9 °F 61% 30.21 in 10.0 mi Calm Calm - N/A   Clear
9:51 AM 57.0 °F 33.1 °F 40% 30.21 in 10.0 mi Variable 4.6 mph - N/A   Clear
10:51 AM 57.9 °F 35.1 °F 42% 30.20 in 10.0 mi Calm Calm - N/A   Clear
11:51 AM 62.1 °F 33.1 °F 34% 30.19 in 10.0 mi Variable 5.8 mph - N/A   Clear
12:51 PM 63.0 °F 28.9 °F 28% 30.19 in 10.0 mi Variable 6.9 mph - N/A   Clear
1:51 PM 64.0 °F 28.9 °F 27% 30.18 in 10.0 mi Variable 3.5 mph - N/A   Clear
2:51 PM 64.0 °F 30.0 °F 28% 30.17 in 10.0 mi Calm Calm - N/A   Clear
3:51 PM 64.0 °F 33.1 °F 31% 30.14 in 10.0 mi Variable 5.8 mph - N/A   Clear
4:51 PM 62.1 °F 33.1 °F 34% 30.15 in 10.0 mi WNW 5.8 mph - N/A   Mostly Cloudy
5:51 PM 60.1 °F 35.1 °F 39% 30.17 in 10.0 mi Variable 5.8 mph - N/A   Scattered Clouds
6:51 PM 57.9 °F 37.9 °F 47% 30.17 in 10.0 mi North 6.9 mph - N/A   Partly Cloudy
7:51 PM 55.9 °F 37.0 °F 49% 30.16 in 10.0 mi Calm Calm - N/A   Clear
8:51 PM 52.0 °F 41.0 °F 66% 30.17 in 10.0 mi Calm Calm - N/A   Overcast
9:51 PM 51.1 °F 42.1 °F 71% 30.17 in 10.0 mi Calm Calm - N/A   Overcast
10:51 PM 48.9 °F 43.0 °F 80% 30.17 in 10.0 mi Calm Calm - N/A   Overcast
11:51 PM 48.9 °F 43.0 °F 80% 30.15 in 10.0 mi Calm Calm - N/A   Overcast